Regional Weather Roundup
Issued by NWS Kansas City/Pleasant Hill, MO

Home | Current Version | Previous Version | Text Only | Print | Product List | Glossary On
Versions: 1 2 3 4 5 6 7 8 9 10 11 12 13 14 15 16 17 18 19 20 21 22 23 24 25 26 27 28
000
ASUS43 KEAX 161410
RWREAX

WEATHER ROUNDUP FOR EASTERN KANSAS AND NORTHWEST MISSOURI
NATIONAL WEATHER SERVICE KANSAS CITY/PLEASANT HILL MO
900 AM CDT MON OCT 16 2017

KSZ040-057-103>105-MOZ028-029-037-043-161500-
...KANSAS CITY METROPOLITAN AREA...

CITY           SKY/WX    TMP DP  RH WIND       PRES   REMARKS
K.C. INTL      SUNNY     47  41  80 SW6       30.39S
K.C. DOWNTOWN  SUNNY     48  44  86 CALM      30.40S
LEES SUMMIT    SUNNY     48  41  76 SW6       30.41R
OLATHE - IXD   SUNNY     47  43  86 S3        30.41R
OLATHE - OJC   SUNNY     48  39  71 SW5       30.40S
LAWRENCE       SUNNY     42  42 100 CALM      30.41R

$$

MOZ001>008-011>017-020>025-030>033-038>040-044>046-053-054-161500-
...NORTHERN AND CENTRAL MISSOURI...

CITY           SKY/WX    TMP DP  RH WIND       PRES   REMARKS
ST. JOSEPH     SUNNY     42  42 100 CALM      30.39S
MOSBY          SUNNY     39  37  93 CALM      30.41R
WARRENSBURG    SUNNY     45  41  87 CALM      30.41R
WHITEMAN AFB   SUNNY     48  40  72 W7        30.37R
CLINTON        SUNNY     45  45 100 CALM      30.42R
SEDALIA        SUNNY     50  41  71 SW6       30.42R
WARSAW         NOT AVBL
CHILLICOTHE      N/A     45  42  89 CALM      30.40R
KIRKSVILLE     SUNNY     47  41  80 W7        30.38R

$$

MOZ041-047>049-056>058-063>065-088>090-097-161500-
...EASTERN AND SOUTHERN MISSOURI...

CITY           SKY/WX    TMP DP  RH WIND       PRES   REMARKS
ST. LOUIS INTL SUNNY     50  46  86 W5        30.41R
SPIRIT OF STL  FOG       45  45 100 SW6       30.40R VSB 1/4
COLUMBIA       SUNNY     50  41  71 CALM      30.40R
JEFFERSON CITY SUNNY     44  42  93 CALM      30.41S FOG
ROLLA          SUNNY     48  43  82 CALM      30.42R
OSAGE BEACH    SUNNY     42  41  96 CALM      30.43R
SPRINGFIELD    SUNNY     47  44  90 CALM      30.42R
BRANSON        SUNNY     48  41  76 CALM      30.44R
JOPLIN         SUNNY     47  45  93 CALM      30.44R
WEST PLAINS    SUNNY     51  43  74 VRB3      30.42R

$$

IAZ060-094-KSZ022-034>040-054-083-096-NEZ052-066-093-161500-
...KANSAS...SOUTHEAST NEBRASKA AND IOWA...

CITY           SKY/WX    TMP DP  RH WIND       PRES   REMARKS
TOPEKA         SUNNY     43  43 100 CALM      30.40S
MANHATTAN      SUNNY     42  39  89 CALM      30.39S
EMPORIA        SUNNY     46  40  79 SW5       30.41R
CHANUTE        SUNNY     48  43  82 SW3       30.43R
WICHITA        SUNNY     47  42  83 S5        30.41R
OMAHA          SUNNY     44  38  79 S7        30.34S
LINCOLN        SUNNY     41  37  86 SE3       30.35S
FALLS CITY     SUNNY     41  39  93 CALM      30.37R
LAMONI         SUNNY     48  38  68 CALM      30.36R
DES MOINES     SUNNY     44  38  79 CALM      30.33R

$$





USA.gov is the U.S. government's official web portal to all federal, state and local government web resources and services.